Malmstrom AFB, MT

2:11 AM MDT on June 20, 2018 (GMT -0600)
Malmstrom AFB

Weather History for KGFA - August, 2017

Change the Weather History Date:

Sunday, August 13, 2017

  Actual Average (KGTF) Record (KGTF)
Temperature  
Mean Temperature 70 °F -  
Max Temperature 86 °F 81 °F 99 °F (2015)
Min Temperature 54 °F 53 °F 40 °F (1918)
Cooling Degree Days 4    
Growing Degree Days 20 (Base 50)    
Moisture  
Dew Point 45 °F    
Average Humidity 43    
Maximum Humidity 60    
Minimum Humidity 19    
Precipitation  
Precipitation 0.00 in - - ()
Sea Level Pressure  
Sea Level Pressure 29.78 in    
Wind  
Wind Speed 10 mph (WSW)    
Max Wind Speed 36 mph    
Max Gust Speed 48 mph    
Visibility 10 miles    
Events Rain    
Averages and records for this station are not official NWS values.
T = Trace of Precipitation, MM = Missing Value Source: NWS Daily Summary

Daily Weather History Graph

Daily Weather History Graph

Search for Another Location

Airport or City:

Astronomy

Aug. 13, 2017 Rise Set
Actual Time 6:18 AM MDT 8:39 PM MDT
Civil Twilight 5:44 AM MDT 9:13 PM MDT
Nautical Twilight 5:01 AM MDT 9:55 PM MDT
Astronomical Twilight 4:13 AM MDT 10:43 PM MDT
Moon 11:49 PM MDT (8/13) 12:47 PM MDT (8/13)
Length of Visible Light 15h 28m
Length of Day
14h 20m
Waning Gibbous, 65% of the Moon is Illuminated
Aug 13
Waning Gibbous
Aug 14
Last Quarter
Aug 21
New
Aug 29
First Quarter
Sep 6
Full

Hourly Weather History & Observations

Time (MDT) Temp. Dew Point Humidity Pressure Visibility Wind Dir Wind Speed Gust Speed Precip Events Conditions
12:58 AM 66.4 °F 37.4 °F 34% 29.81 in 10.0 mi SSE 11.5 mph - N/A   Clear
1:58 AM 64.6 °F 37.9 °F 37% 29.81 in 10.0 mi SSE 8.1 mph - N/A   Clear
2:58 AM 59.4 °F 38.3 °F 46% 29.80 in 10.0 mi ESE 4.6 mph - N/A   Partly Cloudy
3:58 AM 60.8 °F 38.1 °F 43% 29.81 in 10.0 mi Calm Calm - N/A   Mostly Cloudy
4:58 AM 56.8 °F 39.0 °F 51% 29.79 in 10.0 mi SSE 6.9 mph - N/A   Mostly Cloudy
5:58 AM 54.1 °F 39.0 °F 57% 29.80 in 10.0 mi South 9.2 mph - N/A   Partly Cloudy
6:58 AM 55.8 °F 39.2 °F 54% 29.79 in 10.0 mi SSE 5.8 mph - N/A   Clear
7:58 AM 59.9 °F 40.6 °F 49% 29.78 in 10.0 mi Calm Calm - N/A   Partly Cloudy
8:58 AM 61.9 °F 41.4 °F 47% 29.81 in 10.0 mi Calm Calm - N/A   Partly Cloudy
9:58 AM 66.4 °F 41.4 °F 40% 29.80 in 10.0 mi North 3.5 mph - N/A   Partly Cloudy
10:58 AM 76.3 °F 42.4 °F 30% 29.76 in 10.0 mi WSW 6.9 mph - N/A   Clear
11:58 AM 81.7 °F 41.2 °F 24% 29.73 in 9.0 mi SW 13.8 mph 21.9 mph N/A   Clear
12:58 PM 82.2 °F 40.1 °F 22% 29.71 in 10.0 mi WSW 12.7 mph 20.7 mph N/A   Partly Cloudy
1:58 PM 84.2 °F 39.4 °F 20% 29.69 in 10.0 mi West 4.6 mph - N/A   Partly Cloudy
2:58 PM 85.3 °F 39.0 °F 19% 29.68 in 10.0 mi West 6.9 mph - N/A   Partly Cloudy
3:58 PM 83.8 °F 40.1 °F 21% 29.67 in 10.0 mi WNW 10.4 mph - N/A   Scattered Clouds
4:58 PM 82.8 °F 41.0 °F 23% 29.72 in 10.0 mi West 11.5 mph - N/A   Partly Cloudy
5:07 PM 75.2 °F 50.0 °F 41% 29.75 in 6.0 mi West 35.7 mph 48.3 mph N/A   Haze
5:08 PM 75.2 °F 50.0 °F 41% 29.75 in 5.0 mi West 35.7 mph 48.3 mph N/A Rain Light Rain
5:27 PM 69.8 °F 51.8 °F 53% 29.79 in 10.0 mi West 26.5 mph 39.1 mph N/A   Mostly Cloudy
5:33 PM 69.8 °F 51.8 °F 53% 29.81 in 10.0 mi West 21.9 mph 39.1 mph N/A Rain Light Rain Showers
5:58 PM 68.2 °F 53.8 °F 60% 29.82 in 10.0 mi West 19.6 mph 26.5 mph N/A Rain Light Rain Showers
6:22 PM 68.0 °F 53.6 °F 60% 29.83 in 10.0 mi West 13.8 mph - N/A   Mostly Cloudy
6:36 PM 68.0 °F 53.6 °F 60% 29.83 in 10.0 mi West 9.2 mph - N/A Rain Light Rain Showers
6:57 PM 69.8 °F 51.8 °F 53% 29.83 in 10.0 mi WSW 10.4 mph - N/A   Mostly Cloudy
6:58 PM 68.9 °F 52.0 °F 55% 29.83 in 10.0 mi WSW 9.2 mph - N/A   Mostly Cloudy
7:58 PM 69.1 °F 49.3 °F 49% 29.81 in 10.0 mi WSW 11.5 mph - N/A   Mostly Cloudy
8:58 PM 67.1 °F 48.9 °F 52% 29.80 in 10.0 mi SW 13.8 mph - N/A   Mostly Cloudy
9:58 PM 66.4 °F 46.8 °F 49% 29.81 in 10.0 mi SW 15.0 mph - N/A   Mostly Cloudy
10:58 PM 64.4 °F 46.0 °F 51% 29.79 in 10.0 mi SW 13.8 mph - N/A   Partly Cloudy
11:58 PM 63.7 °F 46.4 °F 53% 29.78 in 10.0 mi West 6.9 mph - N/A   Scattered Clouds